Location: Maccacari
(45.1333°N, 11.1333°E)
Time: 15:07:50
(UTC+00:00)

Vanguard 2 - Visible Passes

Search period start: 23 January 2021 00:00
Search period end: 02 February 2021 00:00
Orbit: 553 x 2937 km, 32.9° (Epoch: 23 January)

Date Brightness Start Highest point End Pass type
(mag) Time Alt. Az. Time Alt. Az. Time Alt. Az.
23 Jan 9.4 18:34:22 10° SW 18:38:12 22° S 18:39:27 21° SSE visible
24 Jan 9.3 16:45:22 10° SSW 16:48:12 18° S 16:51:32 10° SE visible
24 Jan 9.5 18:52:10 10° SW 18:55:49 20° S 18:56:22 19° S visible
25 Jan 9.3 17:02:50 10° SW 17:05:45 18° S 17:09:12 10° SE visible
25 Jan 9.8 19:10:14 10° SW 19:13:18 16° SSW 19:13:18 16° SSW visible
26 Jan 9.4 17:20:28 10° SW 17:23:18 18° S 17:26:41 10° SE visible
26 Jan 10.1 19:28:46 10° SW 19:30:18 12° SSW 19:30:18 12° SSW visible
27 Jan 9.5 17:38:17 10° SW 17:40:54 16° S 17:43:56 10° SSE visible
28 Jan 9.7 17:56:26 10° SW 17:58:29 13° S 18:00:47 10° SSE visible
